EHI
0 0 0 0 0 0 0 0 0 0 0 0 0 0 0 0 0 0 0 0 0 0 0 0 0 0 0 0 0 0 0 0 0 0 0 0 0 0
0 0 0 0 0 0 0 0 0 0 0 0 0 0 0 0 0 0 0 0 0 0 0 0 0 0 0 0 0 0 0 0 0 0 0 0 0 0
0 0 0 0 0 0 0 0 0 0 0 0 0 0 0 0 0 0 0 0 0 0 0 0 0 0 0 0 0 0 0 0 0 0 0 0 0 0
0 0 0 0 0 0 0 0 0 0 0 0 0 0 0 0 0 0 0 0 0 0 0 0 0 0 0 0 0 0 0 0 0 0 0 0 0 0
0 0 0 0 0 0 0 0 0 0 0 0 0 0 0 0 0 0 0 0 0 0 0 0 0 0 0 0 0 0 0 0 0 0 0 0 0 0
0 0 0 0 0 0 0 0 0 0 0 0 0 0 0 0 0 0 0 0 0 0 0 0 0 0 0 0 0 0 0 0 0 0 0 0 0 0
0 0 0 0 0 0 0 0 0 0 0 0 0 0 0 0 0 0 0 0 0 0 0 0 0 0 0 0 0 0 0 0 0 0 0 0 0 0
0 0 0 0 0 0 0 0 0 0 0 0 0 0 0 0 0 0 0 0 0 0 0 0 0 0 0 0 0 0 0 0 0 0 0 0 0 0
0 0 0 0 0 0 0 0 0 0 0 0 0 0 0 0 0 0 0 0 0 0 0 0 0 0 0 0 0 0 0 0 0 0 0 0 0 0
0 0 0 0 0 0 0 0 0 0 0 0 0 0 0 0 0 0 0 0 0 0 0 0 0 0 0 0 0 0 0 0 0 0 0 0 0 0
0 0 0 0 0 0 0 0 0 0 0 0 0 0 0 0 0 0 0 0 0 0 0 0 0 0 0 0 0 0 0 0 0 0 0 0 0 0
0 0 0 0 0 0 0 0 0 0 0 0 0 0 0 0 0 0 0 0 0 0 0 0 0 0 0 0 0 0 0 0 0 0 0 0 0 0
0 0 0 0 0 0 0 0 0 0 0 0 0 0 0 0 0 0 0 0 0 0 0 0 0 0 0 0 0 0 0 0 0 0 0 0 0 0
0 0 0 0 0 0 0 0 0 0 0 0 0 0 0 0 0 0 0 0 0 0 0 0 0 0 0 0 0 0 0 0 0 0 0 0 0 0
0 0 0 0 0 0 0 0 0 0 0 0 0 0 0 0 0 0 0 0 0 0 0 0 0 0 0 0 0 0 0 0 0 0 0 0 0 0
0 0 0 0 0 0 0 0 0 0 0 0 0 0 0 0 0 0 0 0 0 0 0 0 0 0 0 0 0 0 0 0 0 0 0 0 0 0
0 0 0 0 0 0 0 0 0 0 0 0 0 0 0 0 0 0 0 0 0 0 0 0 0 0 0 0 0 0 0 0 0 0 0 0 0 0
0 0 0 0 0 0 0 0 0 0 0 0 0 0 0 0 0 0 0 0 0 0 0 0 0 0 0 0 0 0 0 0 0 0 0 0 0 0
0 0 0 0 0 0 0 0 0 0 0 0 0 0 0 0 0 0 0 0 0 0 0 0 0 0 0 0 0 0 0 0 0 0 0 0 0 0
0 0 0 0 0 0 0 0 0 0 0 0 0 0 0 0 0 0 0 0 0 0 0 0 0 0 0 0 0 0 0 0 0 0 0 0 0 0
0 0 0 0 0 0 0 0 0 0 0 0 0 0 0 0 0 0 0 0 0 0 0 0 0 0 0 0 0 0 0 0 0 0 0 0 0 0
0 0 0 0 0 0 0 0 0 0 0 0 0 0 0 0 0 0 0 0 0 0 0 0 0 0 0 0 0 0 0 0 0 0 0 0 0 0
0 0 0 0 0 0 0 0 0 0 0 0 0 0 0 0 0 0 0 0 0 0 0 0 0 0 0 0 0 0 0 0 0 0 0 0 0 0
Wind_Speed
5 5 4 3 3 4 4 4 5 6 4 1 2 2 4 5 4 7 8 6 8 10 11 11 12 13 13 14 14 15 15 16 17 18 19 20 20 21
5 6 5 4 4 4 4 4 4 5 6 5 4 5 6 8 6 8 9 8 13 13 11 11 12 13 13 14 15 16 16 16 18 18 19 20 20 21
5 5 5 5 4 4 4 4 4 4 6 6 5 5 7 9 8 9 10 10 8 8 8 10 12 13 14 15 15 15 16 16 17 18 19 19 20 20
6 5 5 4 5 4 4 5 4 5 6 8 7 7 8 9 9 10 10 8 9 5 7 10 13 14 14 14 14 13 13 14 15 17 18 19 19 20
6 6 6 6 5 5 5 5 5 5 6 7 8 7 8 8 9 10 10 8 10 7 8 12 12 12 13 13 13 12 11 11 13 14 16 16 17 18
6 6 6 6 7 7 6 6 6 7 7 7 7 7 7 7 8 8 8 7 8 9 9 8 8 11 14 14 14 12 10 10 11 12 13 14 15 16
6 6 6 6 7 7 8 9 9 8 8 8 8 8 7 8 8 7 9 9 9 7 8 8 7 7 7 10 11 8 7 9 10 11 11 12 13 14
6 6 4 2 4 5 6 8 10 10 10 9 8 9 9 9 8 8 8 8 8 6 8 9 8 7 6 5 2 1 5 8 9 10 11 12 13 14
7 6 6 5 6 8 7 8 9 9 9 9 10 10 10 9 10 10 9 9 9 8 8 9 7 7 6 2 4 3 5 8 9 10 11 12 13 13
6 6 6 7 8 10 11 10 9 5 4 7 8 9 9 9 9 9 9 9 9 6 5 7 7 7 7 3 6 7 7 9 9 10 11 11 12 13
5 5 6 7 8 10 11 10 9 7 3 7 9 10 11 11 10 8 7 7 7 6 4 5 7 8 7 4 1 7 8 9 9 10 10 10 11 13
5 3 3 5 9 10 10 9 9 9 10 8 6 7 7 7 9 8 7 7 7 5 4 5 6 6 6 5 6 5 5 6 8 9 9 9 10 10
6 5 5 6 9 10 10 8 8 11 10 8 6 5 3 3 3 3 4 6 6 5 5 5 5 5 4 6 7 6 7 6 6 5 5 6 8 9
6 6 7 10 12 12 8 7 10 11 7 5 5 5 5 5 5 5 5 5 6 7 7 6 5 5 6 6 5 7 7 6 6 7 6 4 5 6
6 7 9 11 11 7 4 8 9 6 6 6 6 6 5 6 6 5 4 4 5 5 4 5 5 5 5 5 6 6 6 6 6 6 6 5 5 5
6 5 7 9 8 5 5 4 4 5 6 6 6 6 5 5 5 5 5 5 4 3 2 3 4 5 5 6 5 6 6 6 6 6 6 4 4 5
10 6 5 5 5 6 5 5 5 5 6 6 6 7 6 6 5 5 5 5 5 5 4 3 3 2 2 4 6 6 7 6 6 7 6 6 5 5
9 5 6 6 6 7 7 6 6 6 7 7 7 7 7 6 6 5 5 5 5 5 5 5 5 4 2 2 4 7 6 6 6 6 6 5 5 6
5 5 6 6 6 7 7 7 7 7 7 7 7 7 7 7 6 6 6 6 6 6 5 5 6 6 6 5 4 4 7 7 7 7 6 4 5 5
5 6 6 6 7 7 7 8 8 8 8 8 8 8 8 8 8 7 7 8 7 6 6 6 7 7 6 6 5 4 6 8 7 8 7 5 5 5
6 6 6 7 7 7 8 8 8 8 8 8 8 9 8 8 8 8 7 6 6 6 6 6 5 3 4 4 4 5 6 5 6 7 9 7 7 7
7 7 7 7 7 7 8 8 8 8 9 8 9 9 9 8 8 9 8 8 7 7 7 6 5 5 5 6 6 6 6 5 5 4 6 6 6 6
7 7 7 7 7 7 8 9 10 9 9 9 9 9 9 8 8 8 8 8 7 7 7 6 6 5 6 6 6 7 8 6 4 4 5 4 2 2
Wind_Direction
42 37 23 27 7 1 348 333 317 309 307 339 303 330 318 317 323 299 299 307 301 292 289 289 289 288 287 287 286 286 286 285 284 283 282 281 280 280
37 33 14 12 7 351 345 336 327 316 311 320 317 323 331 309 302 298 292 282 260 258 265 277 285 286 285 285 285 285 285 285 285 284 283 283 283 282
31 28 21 5 352 343 339 332 328 319 308 310 314 314 307 302 307 302 295 290 283 236 244 268 279 282 283 283 283 283 284 285 285 286 285 284 284 283
27 15 6 360 351 338 337 330 328 327 309 311 312 310 310 305 302 299 296 295 297 267 232 255 268 272 275 277 278 279 281 284 285 285 285 284 284 283
17 7 0 353 347 350 330 329 326 320 311 304 305 310 305 309 309 301 301 302 296 291 242 242 251 258 264 267 269 272 274 276 278 281 282 283 284 284
12 1 357 355 355 344 330 333 328 318 308 300 301 304 305 313 309 309 310 312 308 308 303 292 266 248 251 252 254 260 265 271 275 278 280 281 281 282
6 1 12 10 1 341 334 334 326 318 312 309 308 310 317 320 318 319 314 312 307 307 311 304 296 286 274 249 240 250 270 279 282 281 281 280 278 278
356 352 347 342 0 304 301 306 308 307 317 314 312 317 317 318 321 315 314 315 315 325 314 308 309 305 301 296 119 218 284 288 287 286 284 282 279 277
349 342 338 2 326 339 320 283 269 251 259 291 304 312 315 321 318 313 314 314 309 310 309 307 313 311 303 313 149 231 272 282 286 288 289 288 285 281
344 341 336 339 12 347 325 317 317 312 283 283 306 309 313 317 312 304 303 300 295 295 303 301 314 316 314 309 180 217 249 267 277 284 288 290 288 283
345 351 343 348 26 339 315 316 321 325 274 254 270 278 281 278 282 293 300 302 311 318 323 310 318 323 316 316 246 220 245 256 265 274 282 288 291 287
345 0 82 359 344 325 316 320 326 332 327 315 286 264 262 253 241 262 293 306 317 320 345 327 323 331 321 326 333 331 307 270 258 264 274 284 295 298
340 348 27 8 331 318 304 309 324 314 308 311 316 322 322 310 288 285 297 302 314 316 328 329 318 324 313 311 322 335 332 328 321 307 281 280 288 299
331 347 1 343 321 308 306 324 307 294 296 317 331 345 349 346 340 328 319 304 292 293 306 315 305 312 310 313 320 327 331 334 335 333 334 319 294 282
334 332 311 303 300 290 262 286 291 302 329 337 345 349 345 339 327 320 313 296 286 282 294 304 302 306 310 315 321 325 328 330 339 337 337 341 344 341
327 308 271 267 273 309 311 306 324 348 343 341 344 340 338 335 330 333 336 338 334 334 322 306 305 311 322 339 343 341 341 337 337 340 340 340 354 359
325 320 349 2 4 8 2 1 356 356 354 352 345 341 342 344 342 340 335 333 342 350 356 354 340 313 320 350 353 353 345 345 346 345 344 354 12 12
312 353 7 6 3 0 358 358 359 360 354 347 344 341 342 345 344 345 344 345 351 356 359 3 2 4 29 82 13 355 355 351 350 356 3 359 6 13
322 10 8 5 360 357 356 355 354 352 345 344 347 346 345 346 346 351 359 358 358 2 10 11 10 6 9 22 52 12 356 357 358 6 8 4 6 15
12 12 9 5 0 357 354 353 351 351 351 349 352 351 350 350 352 355 4 3 1 5 15 22 19 11 6 3 14 38 25 11 7 7 4 11 28 34
13 12 10 5 359 355 354 354 351 351 354 350 352 352 349 350 355 355 1 4 353 9 15 25 22 318 333 12 33 48 63 61 28 16 8 13 18 22
8 6 5 1 358 355 353 353 352 353 355 354 354 351 350 352 354 357 360 1 7 10 12 18 17 9 18 26 30 39 56 87 106 80 44 30 24 24
6 356 354 358 360 355 354 353 352 354 358 356 351 349 349 353 354 358 3 7 10 11 13 17 20 23 24 28 31 34 40 51 68 75 80 111 146 176